GW1259 Weather Reports


Display with metric or nautical units.
time (UTC)temp
F
wind
direction
speed
MPH
gust
MPH
rain 1hr
in
rain 24hr
in
rain mn
in
humidity
%
barometer
mb
20260510033100 56 30 0.0 0.0 0.00 0.00 0.00 88 1010.7
20260510031558 56 0 0.0 0.0 0.00 0.00 0.00 88 1010.7
20260510030056 56 0 0.0 0.0 0.00 0.00 0.00 87 1010.6
20260510024602 57 0 0.0 0.0 0.00 0.00 0.00 86 1010.7
20260510023102 57 0 0.0 0.0 0.00 0.00 0.00 84 1010.6
20260510021600 57 0 0.0 0.0 0.00 0.00 0.00 85 1010.3
20260510020057 58 0 0.0 1.0 0.00 0.00 0.00 85 1010.2
20260510014558 59 0 0.0 0.0 0.00 0.00 0.00 82 1009.8
20260510013054 59 0 0.0 0.0 0.00 0.00 0.00 80 1009.8
20260510011558 60 0 0.0 0.0 0.00 0.00 0.00 81 1009.5
20260510010126 60 0 0.0 0.0 0.00 0.00 0.00 77 1009.3
20260510004557 61 0 0.0 0.0 0.00 0.00 0.00 77 1009.0
20260510003054 62 0 0.0 0.0 0.00 0.00 0.00 74 1008.9
20260510001604 63 0 0.0 0.0 0.00 0.00 0.00 73 1008.9
20260510000057 65 164 0.0 0.0 0.00 0.00 0.00 70 1008.8
20260509234618 66 0 0.0 1.0 0.00 0.00 0.00 72 1008.7
20260509233056 69 0 0.0 0.0 0.00 0.00 0.00 70 1008.6
20260509231556 71 0 0.0 0.0 0.00 0.00 0.00 66 1008.3
20260509230057 72 0 0.0 0.0 0.00 0.00 0.00 58 1008.5
20260509224605 72 0 0.0 0.0 0.00 0.00 0.00 53 1008.5
20260509223059 73 0 0.0 0.0 0.00 0.00 0.00 52 1008.4
20260509221600 73 0 0.0 0.0 0.00 0.00 0.00 53 1008.5
20260509220109 72 0 0.0 0.0 0.00 0.00 0.00 54 1008.5
20260509214559 72 0 0.0 0.0 0.00 0.00 0.00 53 1008.6
20260509213053 72 0 0.0 1.0 0.00 0.00 0.00 52 1008.4
20260509211558 72 0 0.0 2.0 0.00 0.00 0.00 52 1008.3
20260509210054 72 0 0.0 2.0 0.00 0.00 0.00 52 1008.4
20260509204606 73 173 1.0 3.0 0.00 0.00 0.00 51 1008.3
20260509203138 73 195 1.0 5.0 0.00 0.00 0.00 50 1008.2
20260509201610 74 148 2.0 5.0 0.00 0.00 0.00 49 1008.2
20260509194557 73 169 2.0 4.0 0.00 0.00 0.00 51 1008.6
20260509193126 73 144 3.0 5.0 0.00 0.00 0.00 53 1008.8
20260509191614 72 147 4.0 7.0 0.00 0.00 0.00 55 1009.0
20260509190057 71 138 1.0 3.0 0.00 0.00 0.00 56 1009.2
20260509184559 70 142 1.0 3.0 0.00 0.00 0.00 60 1009.6
20260509183059 69 158 1.0 2.0 0.00 0.00 0.00 61 1009.7
20260509181600 69 138 0.0 2.0 0.00 0.00 0.00 62 1009.7
20260509180105 68 342 0.0 1.0 0.00 0.00 0.00 61 1010.1
20260509174557 68 0 0.0 2.0 0.00 0.00 0.00 62 1010.4
20260509173102 67 166 1.0 2.0 0.00 0.00 0.00 61 1010.8
20260509171556 67 244 1.0 2.0 0.00 0.00 0.00 61 1011.1
20260509170100 67 249 2.0 4.0 0.00 0.00 0.00 62 1010.8
20260509164607 67 198 2.0 5.0 0.00 0.00 0.00 62 1010.8
20260509163055 66 157 2.0 5.0 0.00 0.00 0.00 61 1011.0
20260509161559 66 140 1.0 4.0 0.00 0.00 0.00 61 1011.1
20260509160057 66 139 2.0 3.0 0.00 0.00 0.00 63 1011.1
20260509154559 65 143 3.0 5.0 0.00 0.00 0.00 61 1011.1
20260509153057 65 140 2.0 5.0 0.00 0.00 0.00 61 1011.1
20260509151605 64 356 0.0 4.0 0.00 0.00 0.00 63 1011.1
20260509150056 63 144 0.0 3.0 0.00 0.00 0.00 65 1011.1
20260509144555 62 145 2.0 4.0 0.00 0.00 0.00 66 1011.3
20260509143055 61 139 1.0 3.0 0.00 0.00 0.00 66 1011.4
20260509141556 60 139 1.0 3.0 0.00 0.00 0.00 66 1011.7
20260509140054 59 147 2.0 4.0 0.00 0.00 0.00 66 1011.8
20260509134558 58 139 2.0 4.0 0.00 0.00 0.00 67 1011.7
20260509133104 57 150 1.0 4.0 0.00 0.00 0.00 69 1011.6
20260509131602 56 149 1.0 2.0 0.00 0.00 0.00 70 1011.7
20260509124557 55 143 1.0 2.0 0.00 0.00 0.00 69 1011.7
20260509123055 55 147 1.0 2.0 0.00 0.00 0.00 71 1011.8
20260509121556 55 152 0.0 1.0 0.00 0.00 0.00 71 1011.8
20260509120100 54 145 0.0 1.0 0.00 0.00 0.00 70 1011.9
20260509114558 54 146 0.0 2.0 0.00 0.00 0.00 71 1011.8
20260509113106 54 148 0.0 1.0 0.00 0.00 0.00 71 1011.5
20260509111604 54 150 0.0 2.0 0.00 0.00 0.00 72 1011.5
20260509110055 53 152 0.0 0.0 0.00 0.00 0.00 69 1011.4
20260509104555 54 0 0.0 0.0 0.00 0.00 0.00 70 1011.2
20260509103101 54 0 0.0 0.0 0.00 0.00 0.00 68 1011.3
20260509101555 54 0 0.0 0.0 0.00 0.00 0.00 67 1011.3
20260509100057 54 0 0.0 0.0 0.00 0.00 0.00 70 1011.3
20260509094555 54 0 0.0 0.0 0.00 0.00 0.00 68 1011.5
20260509093056 54 0 0.0 0.0 0.00 0.00 0.00 67 1011.4
20260509091601 54 0 0.0 0.0 0.00 0.00 0.00 68 1011.6
20260509090057 54 0 0.0 0.0 0.00 0.00 0.00 67 1011.7
20260509084558 54 0 0.0 0.0 0.00 0.00 0.00 67 1011.8
20260509083103 54 0 0.0 2.0 0.00 0.00 0.00 67 1011.9
20260509081604 54 142 0.0 2.0 0.00 0.00 0.00 66 1012.0
20260509080105 54 141 1.0 2.0 0.00 0.00 0.00 67 1012.0
20260509074558 54 143 0.0 1.0 0.00 0.00 0.00 67 1012.1
20260509073054 54 144 0.0 1.0 0.00 0.00 0.00 67 1012.1
20260509071557 54 0 0.0 1.0 0.00 0.00 0.00 68 1012.0
20260509070104 53 0 0.0 1.0 0.00 0.00 0.00 70 1012.0
20260509064555 52 0 0.0 0.0 0.00 0.00 0.00 71 1012.1
20260509063053 51 0 0.0 0.0 0.00 0.00 0.00 75 1012.3
20260509061613 52 0 0.0 0.0 0.00 0.00 0.00 76 1012.3
20260509060122 52 0 0.0 0.0 0.00 0.00 0.00 79 1012.5
20260509054559 51 0 0.0 0.0 0.00 0.00 0.00 74 1012.6
20260509053055 52 0 0.0 0.0 0.00 0.00 0.00 75 1012.5
20260509051558 52 0 0.0 0.0 0.00 0.00 0.00 74 1012.6
20260509050123 52 0 0.0 0.0 0.00 0.00 0.00 73 1012.7
20260509044615 54 0 0.0 0.0 0.00 0.00 0.00 67 1012.7
20260509043057 55 0 0.0 0.0 0.00 0.00 0.00 63 1012.5
20260509041559 55 0 0.0 0.0 0.00 0.00 0.00 61 1012.6
20260509040101 55 0 0.0 1.0 0.00 0.00 0.00 62 1012.7
20260509034557 55 0 0.0 0.0 0.00 0.00 0.00 62 1012.8